Location: Asheville, NC
(35.6000°N, 82.5500°W)
Time: 07:59:43
(UTC-04:00)

N. Korean satellite - Pass Details

Date: 13 February 2018
Orbit: 458 x 514 km, 97.2° (Epoch: 22 May)

Event Time Altitude Azimuth Distance (km) Brightness Sun altitude
Rises 06:42:54 0° 20° (NNE) 2,545 10.3 -8.0°
Reaches altitude 10° 06:45:03 10° 29° (NNE) 1,671 9.5 -7.6°
Maximum altitude 06:48:25 38° 98° (E) 766 8.4 -6.9°
Drops below altitude 10° 06:51:50 10° 168° (SSE) 1,690 9.6 -6.2°
Sets 06:54:01 0° 176° (S) 2,578 10.5 -5.8°
